User: anonymous   Login
Location: B?ezina
(49.8085°N, 13.6013°E)
Time: 23:01:54
(UTC+00:00)
Language:

Cosmos 1346 Rocket - Orbit

View from above orbital plane
View from above orbital plane
View from above satellite
View from above satellite

Ground track
Ground track

The orbit is defined by the following mean orbital elements,

1 13121U          26130.53877126 +.00000000 +00000-0 +13674-3 0 00006
2 13121  81.1867 324.6122 0009054  67.1104 293.1086 15.29108077    07
Epoch (UTC): 10 May 2026 12:55:49
Eccentricity: 0.0009054
inclination: 81.1867°
perigee height: 472 km
apogee height: 485 km
right ascension of ascending node: 324.6122°
argument of perigee: 67.1104°
revolutions per day: 15.29108077
mean anomaly at epoch: 293.1086°

The dashed part of the orbit path shows where the satellite is in the earth's shadow,  

DLR